AG4MR Weather Reports


time (UTC)temp
C
wind
direction
speed
KPH
gust
KPH
rain 1hr
cm
rain 24hr
cm
rain mn
cm
humidity
%
barometer
mb
20260906131556 25 117 0.0 0.0 0.00 0.00 0.00 1 1012.3
20260906130052 25 117 0.0 0.0 0.00 0.00 0.00 1 1012.2
20260906124548 25 117 0.0 0.0 0.00 0.00 0.00 1 1012.2
20260906123112 24 117 0.0 0.0 0.00 0.00 0.00 1 1012.0
20260906121541 24 117 0.0 0.0 0.00 0.00 0.00 1 1011.9
20260906120033 23 117 0.0 0.0 0.00 0.00 0.00 1 1011.8
20260906114529 23 117 0.0 0.0 0.00 0.00 0.00 1 1011.8
20260906113024 23 117 0.0 0.0 0.00 0.00 0.00 1 1011.9
20260906111527 23 117 0.0 0.0 0.00 0.00 0.00 1 1011.8
20260906110015 24 117 0.0 0.0 0.00 0.00 0.00 1 1011.7
20260906104512 24 117 0.0 0.0 0.00 0.00 0.00 1 1011.6
20260906103007 24 117 0.0 0.0 0.00 0.00 0.00 1 1011.7
20260906101505 24 117 0.0 0.0 0.00 0.00 0.00 1 1011.9
20260906100059 25 117 0.0 0.0 0.00 0.00 0.00 1 1012.0
20260906094605 25 117 0.0 0.0 0.00 0.00 0.00 1 1012.1
20260906093051 25 128 0.0 0.0 0.00 0.00 0.00 1 1012.0
20260906091600 25 128 0.0 0.0 0.00 0.00 0.00 1 1011.6
20260906090044 25 128 0.0 0.0 0.00 0.00 0.00 1 1011.3
20260906084538 25 128 0.0 0.0 0.00 0.00 0.00 1 1011.3
20260906083036 25 128 0.0 0.0 0.00 0.00 0.00 1 1011.1
20260906081528 25 128 0.0 0.0 0.00 0.00 0.00 1 1011.1
20260906080030 25 128 0.0 0.0 0.00 0.00 0.00 1 1011.0
20260906074520 25 128 0.0 0.0 0.00 0.00 0.00 1 1011.2
20260906073015 25 128 0.0 0.0 0.00 0.00 0.00 1 1011.0
20260906071511 25 128 0.0 0.0 0.00 0.00 0.00 1 1011.0
20260906070007 25 128 0.0 0.0 0.00 0.00 0.00 1 1011.0
20260906064502 25 128 0.0 0.0 0.00 0.00 0.00 1 1011.3
20260906063101 25 128 0.0 0.0 0.00 0.00 0.00 1 1011.4
20260906061554 25 128 0.0 0.0 0.00 0.00 0.00 1 1011.4
20260906060052 25 128 0.0 0.0 0.00 0.00 0.00 1 1011.7
20260906054546 26 122 0.0 0.0 0.00 0.00 0.00 1 1011.7
20260906053048 26 122 0.0 1.6 0.00 0.00 0.00 1 1011.7
20260906051536 26 122 0.0 1.6 0.00 0.00 0.00 1 1011.8
20260906050035 26 122 0.0 0.0 0.00 0.00 0.00 1 1012.0
20260906044529 26 122 0.0 0.0 0.00 0.00 0.00 1 1012.0
20260906043030 27 122 0.0 0.0 0.00 0.00 0.00 1 1011.9
20260906041519 27 122 0.0 0.0 0.00 0.00 0.00 1 1011.9
20260906040015 27 122 0.0 0.0 0.00 0.00 0.00 1 1012.0
20260906034510 27 122 0.0 0.0 0.00 0.00 0.00 1 1012.0
20260906033014 27 122 0.0 6.4 0.00 0.00 0.00 1 1011.9
20260906031501 28 121 0.0 3.2 0.00 0.00 0.00 1 1012.0
20260906030057 28 121 0.0 3.2 0.00 0.00 0.00 1 1012.1
20260906024556 28 121 0.0 3.2 0.00 0.00 0.00 1 1012.2
20260906023053 28 122 1.6 6.4 0.00 0.00 0.00 1 1011.9
20260906021544 28 169 0.0 3.2 0.00 0.00 0.00 1 1011.8
20260906020052 28 169 0.0 0.0 0.00 0.00 0.00 1 1011.8
20260906014535 28 100 0.0 3.2 0.00 0.00 0.00 1 1011.3
20260906013040 28 222 0.0 3.2 0.00 0.00 0.00 1 1010.7
20260906011526 28 98 0.0 0.0 0.00 0.00 0.00 1 1010.8
20260906010022 28 98 0.0 0.0 0.00 0.00 0.00 1 1010.4
20260906004518 28 98 0.0 0.0 0.00 0.00 0.00 1 1009.8
20260906003013 29 98 0.0 0.0 0.00 0.00 0.00 1 1009.7
20260906001516 30 98 0.0 0.0 0.00 0.00 0.00 1 1009.8
20260906000013 30 98 0.0 0.0 0.00 0.00 0.00 14 1010.0
20260905234506 31 98 0.0 0.0 0.00 0.00 0.00 17 1010.1
20260905233056 31 97 0.0 0.0 0.00 0.00 0.00 8 1009.9
20260905231554 32 200 0.0 0.0 0.00 0.00 0.00 18 1009.8
20260905230050 32 200 0.0 0.0 0.00 0.00 0.00 27 1009.8
20260905224549 33 200 0.0 0.0 0.00 0.00 0.00 31 1009.7
20260905223038 33 200 0.0 0.0 0.00 0.00 0.00 28 1009.5
20260905221533 33 200 0.0 0.0 0.00 0.00 0.00 42 1009.5
20260905220029 34 200 0.0 0.0 0.00 0.00 0.00 46 1009.6
20260905214525 35 200 0.0 0.0 0.00 0.00 0.00 52 1009.6
20260905213020 35 200 0.0 0.0 0.00 0.00 0.00 52 1009.6
20260905211515 35 200 0.0 0.0 0.00 0.00 0.00 52 1009.8
20260905210011 35 157 0.0 0.0 0.00 0.00 0.00 50 1009.7
20260905204508 35 84 0.0 0.0 0.00 0.00 0.00 51 1009.9
20260905203002 35 119 0.0 0.0 0.00 0.00 0.00 51 1010.1
20260905201559 35 151 0.0 8.0 0.00 0.00 0.00 49 1010.0
20260905200056 35 277 0.0 1.6 0.00 0.00 0.00 48 1010.3
20260905194604 35 197 0.0 3.2 0.00 0.00 0.00 47 1010.5
20260905193045 35 232 0.0 0.0 0.00 0.00 0.00 48 1010.8
20260905191541 36 106 0.0 1.6 0.00 0.00 0.00 49 1011.0
20260905190037 36 267 0.0 0.0 0.00 0.00 0.00 48 1011.2
20260905184550 36 154 0.0 1.6 0.00 0.00 0.00 47 1011.3
20260905183040 36 295 0.0 0.0 0.00 0.00 0.00 49 1011.7
20260905181523 36 194 0.0 1.6 0.00 0.00 0.00 51 1012.0
20260905180026 36 286 0.0 0.0 0.00 0.00 0.00 51 1012.2
20260905174515 36 25 0.0 0.0 0.00 0.00 0.00 52 1012.5
20260905173011 36 155 0.0 6.4 0.00 0.00 0.00 51 1012.6
20260905171508 35 11 0.0 0.0 0.00 0.00 0.00 51 1012.9
20260905170002 35 334 0.0 0.0 0.00 0.00 0.00 49 1013.1
20260905164559 35 113 0.0 1.6 0.00 0.00 0.00 51 1013.3
20260905163058 34 202 0.0 0.0 0.00 0.00 0.00 44 1013.4
20260905161549 33 231 0.0 0.0 0.00 0.00 0.00 40 1013.4
20260905160048 33 200 0.0 0.0 0.00 0.00 0.00 34 1013.5
20260905154605 32 200 0.0 0.0 0.00 0.00 0.00 22 1013.6
20260905153035 32 108 0.0 0.0 0.00 0.00 0.00 16 1013.7
20260905151531 31 19 0.0 0.0 0.00 0.00 0.00 4 1013.8
20260905150027 30 355 0.0 0.0 0.00 0.00 0.00 1 1013.8
20260905144523 28 321 0.0 0.0 0.00 0.00 0.00 1 1013.9
20260905143018 27 321 0.0 0.0 0.00 0.00 0.00 1 1013.9
20260905141513 26 322 0.0 0.0 0.00 0.00 0.00 1 1014.0
20260905140009 25 322 0.0 0.0 0.00 0.00 0.00 1 1014.2
20260905134505 24 322 0.0 0.0 0.00 0.00 0.00 1 1014.2
20260905133101 23 322 0.0 0.0 0.00 0.00 0.00 1 1014.2